DW9435 Weather Reports


Display with metric or nautical units.
time (UTC)temp
F
wind
direction
speed
MPH
gust
MPH
rain 1hr
in
rain 24hr
in
rain mn
in
humidity
%
barometer
mb
20260506170038 48 323 12.0 23.0 0.00 0.19 0.19 33 1016.4
20260506164533 48 6 9.0 16.0 0.00 0.19 0.19 38 1016.3
20260506163035 47 333 11.0 24.0 0.00 0.19 0.19 38 1016.0
20260506161530 47 338 19.0 25.0 0.00 0.19 0.19 39 1015.8
20260506160029 47 338 14.0 24.0 0.00 0.19 0.19 40 1015.5
20260506154524 47 314 13.0 25.0 0.00 0.19 0.19 44 1015.3
20260506153022 47 9 8.0 19.0 0.00 0.19 0.19 49 1015.2
20260506151524 47 30 8.0 20.0 0.00 0.19 0.19 49 1014.8
20260506150017 46 338 11.0 21.0 0.00 0.19 0.19 50 1014.7
20260506144514 46 25 9.0 15.0 0.00 0.20 0.19 57 1014.4
20260506143012 45 336 4.0 13.0 0.00 0.20 0.19 64 1014.3
20260506141510 43 346 4.0 8.0 0.00 0.20 0.19 67 1014.3
20260506140016 43 19 2.0 6.0 0.00 0.20 0.19 69 1014.1
20260506134507 42 79 2.0 5.0 0.00 0.25 0.19 70 1013.8
20260506133005 42 84 2.0 5.0 0.00 0.25 0.19 76 1013.6
20260506131503 40 114 1.0 5.0 0.00 0.25 0.19 89 1013.2
20260506130101 38 134 1.0 3.0 0.00 0.25 0.19 95 1012.9
20260506124559 38 115 0.0 3.0 0.00 0.25 0.19 95 1012.5
20260506123058 38 284 1.0 3.0 0.00 0.25 0.19 95 1012.4
20260506121559 38 179 2.0 5.0 0.00 0.25 0.19 95 1012.3
20260506120054 38 173 4.0 8.0 0.00 0.25 0.19 95 1012.1
20260506114553 38 210 5.0 8.0 0.00 0.25 0.19 95 1012.0
20260506113044 39 201 3.0 7.0 0.00 0.25 0.19 95 1012.0
20260506111541 39 217 7.0 9.0 0.00 0.25 0.19 95 1011.7
20260506110040 39 169 3.0 6.0 0.00 0.25 0.19 95 1011.4
20260506104543 39 252 4.0 7.0 0.00 0.25 0.19 95 1011.2
20260506103035 39 231 4.0 9.0 0.00 0.25 0.19 94 1011.0
20260506101531 40 191 4.0 8.0 0.01 0.25 0.19 94 1010.5
20260506100028 40 231 6.0 10.0 0.08 0.25 0.19 94 1010.2
20260506094524 41 236 4.0 12.0 0.13 0.25 0.19 94 1009.8
20260506093020 43 243 2.0 3.0 0.19 0.25 0.19 94 1009.5
20260506091521 43 150 0.0 5.0 0.18 0.24 0.18 92 1009.2
20260506090016 45 30 15.0 25.0 0.11 0.17 0.11 84 1009.6
20260506084511 48 143 0.0 10.0 0.05 0.11 0.05 71 1008.6
20260506083006 49 143 9.0 15.0 0.00 0.06 0.00 67 1007.5
20260506081506 49 162 1.0 3.0 0.00 0.06 0.00 69 1007.3
20260506073100 49 54 2.0 3.0 0.00 0.06 0.00 70 1008.0
20260506071559 50 331 2.0 5.0 0.00 0.06 0.00 66 1007.9
20260506061547 51 263 0.0 2.0 0.00 0.06 0.00 59 1006.8
20260506044540 53 159 12.0 23.0 0.00 0.06 0.06 53 1005.4
20260506043033 53 165 11.0 20.0 0.00 0.06 0.06 55 1005.5
20260506041531 52 131 12.0 20.0 0.00 0.06 0.06 56 1005.5
20260506040031 53 130 11.0 17.0 0.00 0.06 0.06 55 1005.5
20260506034530 53 156 10.0 16.0 0.00 0.06 0.06 55 1005.4
20260506033034 53 134 10.0 16.0 0.00 0.06 0.06 55 1005.2
20260506031533 53 145 9.0 15.0 0.00 0.06 0.06 54 1005.1
20260506030046 52 144 11.0 17.0 0.00 0.06 0.06 56 1004.9
20260506024529 52 167 11.0 17.0 0.00 0.06 0.06 58 1004.6
20260506023024 52 165 12.0 18.0 0.00 0.06 0.06 58 1004.5
20260506021524 53 133 9.0 20.0 0.00 0.06 0.06 55 1004.4
20260506020023 54 162 10.0 20.0 0.00 0.06 0.06 53 1004.2
20260506014523 55 162 9.0 15.0 0.00 0.06 0.06 51 1004.3
20260506013023 56 176 10.0 16.0 0.00 0.06 0.06 49 1004.1
20260506011531 57 188 7.0 14.0 0.00 0.06 0.06 49 1004.2
20260506010021 57 142 7.0 13.0 0.00 0.06 0.06 49 1004.1
20260506004536 57 166 6.0 13.0 0.00 0.06 0.06 49 1004.0
20260506003024 58 204 5.0 12.0 0.00 0.06 0.06 48 1004.0
20260506001521 58 157 4.0 9.0 0.00 0.06 0.06 48 1004.1
20260506000021 58 72 2.0 9.0 0.00 0.06 0.06 50 1004.2
20260505234514 57 229 7.0 10.0 0.00 0.06 0.06 51 1004.1
20260505233014 57 293 3.0 8.0 0.00 0.06 0.06 52 1004.2
20260505231511 55 217 1.0 3.0 0.00 0.06 0.06 53 1004.3
20260505230012 53 277 0.0 2.0 0.00 0.06 0.06 56 1004.4
20260505224509 52 108 0.0 2.0 0.00 0.06 0.06 60 1004.4
20260505223008 52 329 3.0 5.0 0.00 0.06 0.06 58 1004.8
20260505221508 53 54 2.0 7.0 0.00 0.06 0.06 59 1004.9
20260505220008 54 33 2.0 5.0 0.00 0.06 0.06 53 1004.9
20260505214505 53 148 6.0 9.0 0.00 0.06 0.06 52 1004.7
20260505213007 52 131 6.0 13.0 0.00 0.06 0.06 53 1004.7
20260505211504 53 142 3.0 11.0 0.00 0.06 0.06 52 1004.6
20260505210004 54 79 3.0 6.0 0.00 0.06 0.06 50 1004.6
20260505204502 54 322 0.0 5.0 0.00 0.06 0.06 51 1004.6
20260505203011 54 103 1.0 11.0 0.00 0.06 0.06 51 1004.6
20260505201501 53 83 3.0 13.0 0.00 0.06 0.06 50 1004.6
20260505200101 53 97 6.0 13.0 0.00 0.06 0.06 53 1004.7
20260505200002 53 147 5.0 13.0 0.00 0.06 0.06 53 1004.7
20260505194602 52 149 6.0 15.0 0.00 0.06 0.06 55 1004.6
20260505193158 51 148 8.0 16.0 0.00 0.06 0.06 56 1004.4
20260505191606 51 128 7.0 16.0 0.00 0.06 0.06 56 1004.6
20260505190057 51 129 11.0 19.0 0.00 0.06 0.06 57 1004.5
20260505184602 50 150 12.0 18.0 0.00 0.06 0.06 57 1004.4
20260505183057 50 82 8.0 18.0 0.00 0.06 0.06 59 1004.4
20260505181555 49 78 5.0 14.0 0.00 0.06 0.06 61 1004.5
20260505180054 49 145 8.0 19.0 0.00 0.06 0.06 61 1004.2
20260505174554 49 106 12.0 21.0 0.00 0.06 0.06 62 1004.6
20260505173053 48 120 9.0 18.0 0.00 0.06 0.06 63 1004.4
20260505171553 48 143 8.0 20.0 0.00 0.06 0.06 66 1004.5